Location: Dugenta
(41.1333°N, 14.4500°E)
Time: 15:12:48
(UTC+00:00)

Cosmos 2322 - Pass Details

Date: 03 March 2021
Orbit: 842 x 853 km, 71.0° (Epoch: 21 April)

Event Time Altitude Azimuth Distance (km) Brightness Sun altitude
Rises 17:59:22 0° 178° (S) 3,404 6.8 -12.8°
Reaches altitude 10° 18:01:58 10° 170° (S) 2,473 6.0 -13.3°
Maximum altitude 18:07:07 37° 105° (ESE) 1,304 4.2 -14.3°
Drops below altitude 10° 18:12:18 10° 40° (NE) 2,487 5.8 -15.2°
Sets 18:14:55 0° 32° (NNE) 3,426 6.6 -15.7°
